DateTimeUTC,F1_A11,F1_S11,BsB_S11,BsG_S11,BsR_S11,BbsB_S11,BbsG_S11,BbsR_S11,BaB_A11,BaG_A11,BaR_A11,Tu_S11,T_S11,Uu_S11,U_S11,P_S11,T1_A11
2021-02-02T13:00:00Z,00000200,21000000,,,,,,,-000.08,0000.09,-000.20,15.0,22.8,,00.0,0628.1,30.8
2021-02-02T13:01:00Z,00000200,21000000,,,,,,,-000.19,-000.67,-000.16,15.0,22.8,,00.0,0628.1,30.8
2021-02-02T13:02:00Z,00000200,21000000,,,,,,,0000.15,-000.17,0000.39,14.9,22.8,,00.0,0628.1,30.8
2021-02-02T13:03:00Z,00000200,61000000,,,,,,,-000.38,-000.07,-000.91,14.9,22.8,,00.0,0628.1,30.7
2021-02-02T13:04:00Z,00000200,41000000,0000.58,0000.26,-000.01,-000.00,-000.02,0000.24,-000.06,0000.08,0000.13,15.2,22.5,,00.0,0628.9,30.8
2021-02-02T13:05:00Z,00000200,01000000,0000.51,0000.25,0000.03,0000.34,-000.23,0000.21,-000.40,-000.14,0000.08,15.3,22.4,,00.0,0628.9,30.8
2021-02-02T13:06:00Z,00000200,01000000,0000.12,0000.17,-000.00,0000.77,-000.14,0000.06,0000.14,-000.11,-000.03,15.3,22.4,,00.0,0628.9,30.8
2021-02-02T13:07:00Z,00000200,01000000,0000.44,0000.19,0000.00,0000.46,-000.02,-000.09,0000.06,-000.17,-000.00,15.4,22.4,,00.0,0628.9,30.8
2021-02-02T13:08:00Z,00000200,01000000,0000.58,0000.02,0000.02,0000.21,0000.05,-000.07,-000.52,0000.26,0000.13,15.4,22.4,,00.0,0628.9,30.8
2021-02-02T13:09:00Z,00000200,01000000,0000.19,0000.43,0000.08,0000.09,0000.35,0000.07,0000.56,-000.10,-000.15,15.4,22.4,,00.0,0628.9,30.8
2021-02-02T13:10:00Z,00000200,01000000,0000.06,0000.31,-000.08,0000.73,-000.01,0000.00,0000.20,0000.64,0000.43,15.5,22.4,,00.0,0628.9,30.8
2021-02-02T13:11:00Z,00000200,01000000,0000.65,0000.28,0000.25,0000.37,0000.10,0000.12,-000.08,-000.36,-000.10,15.5,22.4,,00.0,0628.9,30.8
2021-02-02T13:12:00Z,00000200,01000000,0000.37,0000.39,0000.04,0000.12,-000.16,0000.04,0000.61,0000.73,0000.41,15.6,22.4,,00.0,0628.9,30.8
2021-02-02T13:13:00Z,00000200,01000000,0006.24,0006.14,0006.83,0001.56,0001.30,0001.40,0020.54,0020.62,0021.13,15.6,22.4,,00.0,0628.3,30.8
2021-02-02T13:14:00Z,00000200,01000000,0000.18,0000.31,0000.21,-000.08,0000.14,0000.02,-001.18,-000.96,-000.87,15.6,22.5,,00.0,0628.3,30.8
2021-02-02T13:15:00Z,00000200,01000000,0000.10,0000.22,-000.00,0000.09,-000.09,-000.05,0000.08,0000.14,0000.05,15.6,22.5,,00.0,0628.4,30.8
2021-02-02T13:16:00Z,00000200,01000000,0000.62,-000.20,0000.11,0000.58,0000.01,0000.05,0000.35,0000.59,0000.01,15.7,22.5,,00.0,0628.3,30.8
2021-02-02T13:17:00Z,00000200,01000000,0000.75,0000.21,0000.13,0000.84,0000.13,0000.09,0000.34,0000.57,0000.57,15.7,22.5,,00.0,0628.3,30.9
2021-02-02T13:18:00Z,00000200,01000000,0000.51,-000.06,0000.13,-000.19,0000.07,0000.11,0000.62,0000.32,0000.67,15.7,22.5,,00.0,0628.4,30.9
2021-02-02T13:19:00Z,00000200,01000000,0000.05,0000.46,0000.26,0000.32,-000.00,0000.04,0000.02,-000.04,-000.24,15.8,22.5,,00.0,0628.4,30.9
2021-02-02T13:20:00Z,00000200,01000000,0000.20,0000.33,0000.01,0000.33,-000.03,-000.01,0000.43,0000.13,0000.21,15.8,22.5,,00.0,0628.4,30.9
2021-02-02T13:21:00Z,00000200,01000000,0000.29,0000.00,-000.03,0000.33,0000.21,0000.03,0000.04,0000.31,0000.16,15.9,22.6,,00.0,0628.4,30.9
2021-02-02T13:22:00Z,00000200,01000000,0000.50,0000.23,0000.06,0000.53,0000.09,-000.01,0000.03,-000.16,-000.32,15.9,22.6,,00.0,0628.6,30.9
2021-02-02T13:23:00Z,00000200,01000000,0000.06,0000.12,0000.32,0000.81,0000.24,-000.20,-000.18,-000.17,-000.09,16.0,22.6,,00.0,0628.7,30.9
2021-02-02T13:24:00Z,00000200,01000000,0000.11,0000.25,-000.21,0000.29,-000.10,0000.02,-000.59,-000.20,-000.10,16.0,22.7,,00.0,0628.6,30.9
2021-02-02T13:25:00Z,00000200,01000000,0000.71,0000.29,0000.02,0000.26,0000.25,0000.06,0000.53,-000.22,0000.03,16.1,22.7,,00.0,0628.5,30.9
2021-02-02T13:26:00Z,00000200,01000000,0001.11,0000.35,0000.29,0000.38,0000.25,0000.23,-000.36,0000.42,0000.02,16.2,22.7,,00.0,0628.7,30.9
2021-02-02T13:27:00Z,00000200,01000000,0000.14,0000.07,-000.04,-000.05,0000.06,0000.03,-000.02,-000.25,0000.08,16.2,22.7,,00.0,0628.6,30.9
2021-02-02T13:28:00Z,00000200,01000000,0000.48,0000.30,0000.30,-000.21,0000.03,0000.29,-000.02,0000.14,-000.01,16.3,22.8,,00.0,0628.5,30.9
2021-02-02T13:29:00Z,00000200,01000000,0000.80,-000.04,0000.24,-000.30,-000.03,0000.00,0000.56,0000.12,-000.10,16.3,22.8,,00.0,0628.6,30.9
2021-02-02T13:30:00Z,00000200,01000000,0000.72,0000.10,0000.06,0000.20,0000.28,0000.12,-000.37,-000.00,-000.07,16.2,22.8,,00.0,0628.5,30.9
2021-02-02T13:31:00Z,00000200,01000000,-000.33,0000.26,0000.01,0000.20,-000.07,-000.09,0000.21,-000.33,0000.30,16.2,22.8,,00.0,0628.5,30.9
2021-02-02T13:32:00Z,00000200,01000000,-000.08,0000.10,0000.05,0000.23,-000.03,0000.14,0000.04,0000.33,-000.06,16.2,22.8,,00.0,0628.6,30.9
2021-02-02T13:33:00Z,00000200,01000000,0000.95,0000.14,0000.17,0000.15,0000.05,0000.31,0000.09,0000.31,0000.01,16.3,22.8,,00.0,0628.6,30.9
2021-02-02T13:34:00Z,00000200,01000000,0000.62,0000.05,-000.06,0000.13,-000.10,0000.08,0000.09,-000.24,0000.30,16.3,22.8,,00.0,0628.7,30.9
2021-02-02T13:35:00Z,00000200,01000000,0000.02,0000.07,0000.05,-000.39,-000.33,0000.21,-000.05,0000.00,0000.12,16.4,22.8,,00.0,0628.8,30.9
2021-02-02T13:36:00Z,00000200,01000000,0000.29,0000.18,0000.02,0000.24,0000.18,0000.01,-000.26,0000.11,-000.44,16.4,22.9,,00.0,0628.8,30.9
2021-02-02T13:37:00Z,00000200,01000000,0000.55,0000.10,-000.05,0000.10,0000.05,0000.12,0000.30,0000.17,0000.17,16.4,22.9,,00.0,0628.8,30.9
2021-02-02T13:38:00Z,00000200,01000000,0000.66,0000.17,0000.23,0000.13,0000.17,-000.09,0000.12,0000.21,0000.14,16.3,22.9,,00.0,0628.8,30.9
2021-02-02T13:39:00Z,00000200,01000000,0000.44,0000.10,0000.29,0000.07,-000.03,0000.05,0000.09,-000.49,-000.09,16.3,22.9,,00.0,0628.8,30.9
2021-02-02T13:40:00Z,00000200,01000000,0000.19,0000.35,0000.18,0000.00,0000.15,0000.31,0000.08,-000.02,0000.11,16.2,22.8,,00.0,0628.8,30.8
2021-02-02T13:41:00Z,00000200,01000000,0000.09,0000.19,0000.28,0000.05,-000.09,0000.15,-000.86,0000.13,-000.31,16.1,22.8,,00.0,0628.8,30.8
2021-02-02T13:42:00Z,00000200,01000000,0000.35,0000.32,0000.01,0000.10,0000.00,0000.20,0000.24,-000.22,-000.09,16.0,22.7,,00.0,0628.8,30.8
2021-02-02T13:43:00Z,00000200,01000000,0000.29,0000.19,0000.13,0000.03,0000.17,-000.13,-000.08,-000.35,0000.07,15.9,22.7,,00.0,0628.7,30.8
2021-02-02T13:44:00Z,00000200,01000000,0000.21,0000.30,0000.10,0000.09,0000.10,-000.01,0000.10,0000.06,-000.10,15.8,22.7,,00.0,0628.8,30.8
2021-02-02T13:45:00Z,00000200,01000000,0000.62,0000.45,-000.07,0000.63,0000.29,0000.05,-000.46,-000.77,-000.27,15.7,22.6,,00.0,0628.8,30.8
2021-02-02T13:46:00Z,00000200,01000000,0000.81,0000.12,-000.00,0000.21,-000.08,0000.02,0000.35,0000.74,0000.14,15.7,22.6,,00.0,0628.7,30.8
2021-02-02T13:47:00Z,00000200,01000000,0000.75,0000.11,0000.07,0000.06,-000.07,0000.09,0000.25,0000.15,0000.47,15.8,22.6,,00.0,0628.7,30.8
2021-02-02T13:48:00Z,00000200,01000000,0000.20,0000.12,0000.00,0000.23,0000.11,-000.01,0000.18,-000.13,-000.31,15.8,22.7,,00.0,0628.7,30.8
2021-02-02T13:49:00Z,00000200,01000000,0000.48,-000.07,0000.08,0000.67,0000.11,-000.26,0000.11,0000.56,0000.22,15.8,22.7,,00.0,0628.8,30.8
2021-02-02T13:50:00Z,00000200,01000000,-000.16,0000.16,0000.11,-000.02,-000.01,0000.03,0000.03,-000.23,0000.01,15.9,22.7,,00.0,0628.8,30.8
2021-02-02T13:51:00Z,00000200,01000000,0000.88,0000.06,0000.20,0000.28,-000.11,-000.07,0000.43,0001.05,0000.29,15.9,22.7,,00.0,0628.8,30.9
2021-02-02T13:52:00Z,00000200,01000000,0000.25,0000.17,-000.14,0000.26,0000.17,-000.23,0000.50,0000.09,0000.52,16.0,22.7,,00.0,0628.8,30.9
2021-02-02T13:53:00Z,00000200,01000000,-000.18,0000.22,-000.00,0000.27,-000.12,-000.08,0000.42,0000.49,0000.68,16.0,22.7,,00.0,0628.7,30.9
2021-02-02T13:54:00Z,00000200,01000000,0000.26,0000.24,0000.01,0000.19,0000.02,0000.03,0000.48,0000.27,-000.06,16.0,22.7,,00.0,0628.7,30.9
2021-02-02T13:55:00Z,00000200,01000000,0000.33,0000.40,-000.03,0000.18,0000.27,0000.19,0000.27,-000.19,-000.29,15.9,22.7,,00.0,0628.8,30.8
2021-02-02T13:56:00Z,00000200,01000000,-000.24,0000.32,0000.09,-000.50,0000.09,-000.20,0000.11,0000.06,0000.30,15.8,22.6,,00.0,0628.8,30.8
2021-02-02T13:57:00Z,00000200,41000000,,,,,,,-000.45,-000.12,-000.35,15.9,22.6,,00.0,0628.8,30.8
2021-02-02T13:58:00Z,00000200,61000000,,,,,,,0000.37,0000.03,0000.12,15.2,22.7,,00.0,0627.7,30.8
2021-02-02T13:59:00Z,00000200,21000000,,,,,,,-000.20,0000.02,-000.06,15.2,22.8,,00.0,0627.7,30.8
